Content
SEND FEEDBACK

Daily
Averages
Monthly
Summary
United States of America

DEDEDO, GUAM


Home > North America > United States > Guam
Elevation: 364 feet     Latitude: 13 33N     Longitude: 144 49E

WEATHER
 
SELECT A DAY
Number of Records: 209,230;   Date Range: 1/1/95 - 9/3/14
 
SHARE

PRINT THIS DATA

[ ← Previous Day ]
WEATHER ALMANAC - NOVEMBER 22, 2013
[ Next Day → ]
[ °C ]   °F
Weather ElementAverageHighLow
Temperature82.9 °F88.7 °F (10:54 am)79 °F (2:54 am)
Dewpoint74.8 °F77 °F (6:54 pm)72 °F (2:54 am)
Humidity77 %90 % (11:54 pm)63 % (11:54 am)
Barometer29.84 in29.88 in (8:54 am)29.79 in (1:54 pm)
Wind Speed12.5 mph17.3 mph (11:54 am)
Wind Gust25.3 mph (6:54 pm)
Weather ElementAverage
Visibility9.8 mi
Wind DirectionENE (67.4 °)

Weather ElementTotal
Precipitation0.01 in
Cooling Degree Days18.9 (Base 65)
Growing Degree Days33.9 (Base 50)
Averaged from 23 records on November 22, 2013
WEATHER CONDITIONS BREAKOUT
WIND DIRECTION BREAKOUT
WEATHER BY HOUR - NOVEMBER 22, 2013
[ °C ]   °F
Local TimeTemperatureDewpointHumidityBarometerVisibilityWind DirectionWind SpeedGust SpeedPrecipitationEventsConditions
1:54 AM80.1 °F73.9 °F81 %29.84 in10.0 miNE (50°)8.1 mphPartly Cloudy
2:54 AM79.0 °F72.0 °F79 %29.83 in10.0 miENE (60°)10.4 mphOvercast
3:54 AM80.1 °F73.9 °F81 %29.83 in10.0 miENE (60°)10.4 mphClear
4:54 AM80.1 °F72.0 °F76 %29.83 in10.0 miENE (70°)12.7 mphClear
5:54 AM81.0 °F73.0 °F77 %29.83 in10.0 miENE (60°)11.5 mphPartly Cloudy
6:54 AM81.0 °F73.0 °F77 %29.86 in10.0 miENE (70°)9.2 mphClear
7:54 AM82.9 °F73.9 °F74 %29.87 in10.0 miENE (60°)12.7 mphClear
8:54 AM86.0 °F75.0 °F70 %29.88 in10.0 miENE (70°)13.8 mphPartly Cloudy
9:54 AM86.0 °F73.9 °F67 %29.88 in10.0 miENE (70°)16.1 mphScattered Clouds
10:54 AM88.7 °F75.7 °F65 %29.85 in10.0 miENE (70°)16.1 mphScattered Clouds
11:54 AM88.0 °F73.9 °F63 %29.83 in10.0 miENE (60°)17.3 mphScattered Clouds
12:54 PM87.1 °F75.0 °F67 %29.81 in10.0 miENE (60°)17.3 mphOvercast
1:54 PM84.9 °F75.0 °F72 %29.79 in10.0 miENE (60°)15.0 mph24.2 mph0.00 inOvercast
2:54 PM84.9 °F75.0 °F72 %29.79 in10.0 miENE (70°)16.1 mphMostly Cloudy
3:54 PM84.9 °F75.9 °F74 %29.79 in10.0 miENE (70°)13.8 mphOvercast
4:54 PM84.0 °F75.0 °F74 %29.81 in10.0 miENE (70°)15.0 mphScattered Clouds
5:54 PM82.9 °F75.0 °F77 %29.83 in10.0 miENE (70°)12.7 mphScattered Clouds
6:54 PM81.0 °F77.0 °F88 %29.83 in6.0 miENE (60°)13.8 mph25.3 mph0.00 inRainLight Rain
7:54 PM81.0 °F77.0 °F88 %29.85 in10.0 miEast (80°)9.2 mph0.00 inMostly Cloudy
8:54 PM81.0 °F75.9 °F85 %29.86 in10.0 miEast (80°)9.2 mphPartly Cloudy
9:54 PM80.1 °F75.9 °F87 %29.85 in10.0 miEast (80°)8.1 mphPartly Cloudy
10:54 PM81.0 °F77.0 °F88 %29.85 in10.0 miENE (70°)9.2 mphClear
11:54 PM80.1 °F77.0 °F90 %29.84 in10.0 miEast (80°)10.4 mph0.01 inPartly Cloudy
Hourly data recorded from PGUM, located miles away from Dededo, Guam







STORIES FROM OUR PARTNERS